Theta_e
331 329 328 330 331 332 336 338 342 343 355 354 354 353 353 352 354 354 351 349 349 348 348 350 349 349 348 348 347 346 346 347 346
335 333 330 336 342 341 336 340 336 339 347 352 353 355 352 353 354 355 353 352 350 350 348 350 348 350 342 337 341 348 348 347 347
328 329 335 336 338 341 344 344 345 348 350 339 337 335 351 354 355 356 357 353 350 349 345 340 343 343 344 345 345 347 349 348 348
325 324 331 334 335 337 341 343 345 347 348 345 338 342 350 352 354 355 356 353 353 350 348 341 341 347 339 338 343 349 350 347 348
327 322 329 332 326 335 337 338 340 342 342 343 345 345 347 346 353 354 354 352 351 351 349 346 347 344 340 338 346 348 347 345 347
326 334 334 332 326 330 332 328 331 336 336 336 340 341 347 345 345 348 346 350 351 347 345 342 346 345 342 343 345 347 346 346 346
331 331 332 330 326 324 322 320 325 330 329 331 335 336 340 342 342 340 344 345 346 347 345 343 343 343 343 348 347 347 345 340 338
331 330 331 330 329 326 325 323 329 329 329 330 330 332 332 333 338 339 340 341 345 345 342 343 341 340 342 344 342 340 335 332 331
322 325 330 330 331 330 326 326 329 329 328 329 329 329 329 332 332 334 333 334 338 343 342 338 336 334 332 334 341 334 333 333 330
317 319 321 320 322 324 325 326 329 331 328 329 329 329 329 329 329 330 331 333 333 332 335 339 337 336 334 334 335 332 331 336 333
312 313 315 315 315 316 320 321 322 323 326 328 330 330 328 328 328 329 330 329 330 331 332 332 334 340 339 336 339 331 329 333 331
312 313 313 314 317 319 320 320 322 323 324 326 326 328 329 330 329 329 329 329 329 331 331 331 331 333 337 339 343 332 328 328 332
316 317 318 318 319 318 318 319 319 317 318 319 320 322 325 328 330 331 330 330 329 329 330 331 333 333 333 331 335 329 327 325 333
317 317 319 320 319 318 318 320 320 319 321 321 325 328 329 329 329 328 330 330 329 330 330 330 329 329 330 331 330 331 324 322 331
317 317 319 321 319 319 321 321 321 321 322 326 327 328 327 327 327 329 331 329 330 328 327 326 325 325 327 330 331 326 324 321 320
316 316 316 318 316 316 318 320 321 320 323 325 325 324 325 325 326 327 328 327 325 325 325 325 325 325 325 326 329 330 324 321 319
313 314 315 317 317 316 315 318 320 320 322 323 322 322 322 324 324 325 325 326 327 326 325 324 324 324 324 324 325 326 327 322 322
314 315 316 318 318 317 318 319 320 322 322 323 321 322 322 322 323 323 324 324 324 325 326 324 323 324 325 324 323 325 320 321 326
315 315 317 318 319 319 320 320 321 323 320 319 318 319 323 323 323 324 325 324 324 316 314 311 309 310 317 325 318 312 308 306 306
315 315 315 315 314 315 315 312 312 314 313 312 310 312 316 321 321 323 322 322 321 320 320 309 307 304 304 303 310 306 304 303 304
Wind_Speed
3 8 2 2 8 6 6 7 5 5 12 13 10 8 9 9 9 7 8 7 6 7 7 8 7 11 11 12 10 10 9 7 6
3 7 7 7 2 4 10 9 10 6 10 1 7 7 5 7 9 10 8 8 6 6 5 6 7 8 4 7 5 7 8 7 7
12 13 10 7 5 10 6 5 7 7 4 9 8 8 6 9 9 9 10 7 8 8 6 6 5 6 9 14 12 10 7 3 10
18 15 10 6 6 7 7 6 5 4 4 10 7 11 12 8 6 7 7 6 6 7 6 8 7 10 14 16 16 12 9 10 12
7 1 6 5 7 6 5 5 5 5 5 3 2 5 6 6 5 7 7 6 5 5 6 5 11 13 8 9 10 9 7 8 8
4 7 7 5 6 4 4 1 3 5 5 4 5 7 7 7 8 3 4 5 4 2 4 5 6 4 4 6 8 6 5 6 3
7 6 6 3 3 4 4 2 2 4 4 4 4 6 6 7 6 6 5 1 4 3 3 5 5 3 5 6 4 2 4 4 3
7 5 5 6 6 6 5 5 6 5 4 5 5 5 5 3 4 5 5 6 5 4 4 1 3 2 3 4 3 3 5 5 4
5 5 5 5 4 4 6 7 7 5 5 5 3 4 3 4 2 0 2 2 4 4 4 2 2 4 5 4 4 8 8 6 5
7 6 5 4 2 3 4 6 6 5 6 4 4 5 6 6 5 5 5 4 2 2 2 1 3 5 5 6 6 11 11 10 5
7 7 7 7 6 6 5 1 4 4 3 6 6 6 7 6 7 7 6 5 5 4 3 3 3 5 6 6 7 10 14 14 7
6 7 6 6 6 6 6 7 7 6 6 7 7 8 9 9 8 8 7 7 7 6 5 4 5 5 6 7 7 11 14 11 9
6 6 5 7 7 5 6 8 7 7 8 7 8 7 8 7 7 7 8 9 8 6 5 6 5 6 7 9 8 10 15 13 8
5 5 8 8 7 6 7 8 7 8 7 7 7 7 6 6 7 8 9 8 5 6 7 6 6 7 7 8 9 9 14 15 11
9 9 12 11 9 10 11 9 7 9 10 10 10 8 7 8 7 7 7 8 9 7 7 7 7 6 7 7 9 12 13 16 20
7 8 9 11 11 12 12 12 10 12 12 9 8 9 10 10 10 10 9 9 9 7 7 7 8 8 8 7 7 8 15 16 16
8 7 11 10 13 15 13 12 13 13 14 13 10 8 11 10 9 11 9 7 8 8 8 7 8 8 8 7 7 7 7 5 6
8 10 11 12 12 14 16 13 14 14 13 11 11 12 11 11 9 11 11 10 9 9 10 10 8 9 9 7 7 9 9 9 5
9 11 11 11 13 13 13 14 14 13 13 14 13 13 10 10 9 9 8 8 9 11 15 13 15 16 11 8 13 13 12 13 13
10 11 12 13 14 13 12 14 15 15 15 16 16 14 15 12 10 8 7 8 8 9 9 14 15 16 16 16 16 13 15 15 15
Wind_Direction
34 314 82 195 275 234 186 222 247 66 276 212 176 173 192 194 202 211 214 200 209 210 207 215 191 209 212 213 200 214 216 214 200
256 241 190 213 250 146 164 207 218 197 258 135 90 242 220 205 206 215 223 206 205 211 200 205 194 222 237 21 286 232 203 220 226
312 265 137 156 117 66 51 198 247 191 175 99 271 336 353 255 209 213 220 216 203 214 196 219 206 107 55 313 274 257 222 225 258
236 243 125 119 65 67 76 71 53 5 101 145 211 255 241 242 234 223 231 223 213 226 190 189 209 157 167 207 241 234 216 183 233
215 187 108 130 120 107 100 92 68 78 54 61 272 297 284 262 247 240 237 246 232 226 220 200 183 190 186 209 243 244 209 216 217
152 105 95 66 43 102 155 132 85 143 155 84 53 34 13 13 19 347 273 267 279 251 209 223 241 267 197 231 241 226 204 212 231
124 130 141 147 173 201 258 262 272 174 132 111 88 58 46 32 15 4 338 236 286 291 235 214 223 232 264 267 257 161 143 130 156
117 135 155 179 177 204 228 243 256 219 173 153 140 112 88 46 3 352 349 355 345 319 320 29 232 242 279 252 185 148 173 161 208
115 184 222 236 241 250 257 248 250 257 237 199 147 149 184 195 198 294 328 314 1 346 344 350 228 236 250 256 242 167 198 190 202
43 47 42 52 61 266 264 272 247 264 221 230 203 206 223 231 227 226 222 238 270 285 307 254 272 281 279 260 246 185 214 210 205
28 17 8 353 342 333 331 261 276 273 250 225 231 242 246 249 240 238 244 246 247 232 223 235 237 242 247 254 261 220 218 216 218
9 353 341 318 321 307 308 307 300 247 234 235 235 232 230 234 230 234 230 235 238 231 207 221 233 230 239 237 246 246 233 209 221
28 15 6 359 351 352 356 339 340 329 305 305 280 262 248 241 237 227 226 226 227 224 212 223 219 235 232 238 251 238 243 223 233
360 2 351 341 336 327 308 313 321 320 306 294 275 273 267 262 256 246 243 238 220 221 225 222 225 227 234 236 234 246 240 228 227
359 350 351 344 349 336 326 315 310 299 293 296 297 283 280 278 268 263 257 240 242 227 221 226 231 235 241 238 241 236 243 235 222
346 343 340 336 328 324 325 319 313 305 303 299 292 297 291 279 268 264 259 249 242 235 221 216 233 234 240 239 237 242 245 247 232
336 336 333 326 327 328 315 315 310 304 301 294 280 280 288 278 271 268 259 252 247 239 229 223 229 235 237 235 242 244 248 238 227
336 329 324 327 323 324 317 312 310 306 308 305 291 297 292 282 275 273 268 261 254 246 241 222 227 231 232 228 237 246 226 228 205
334 325 328 335 340 337 341 336 335 334 354 341 328 315 301 288 280 273 265 260 269 249 243 237 230 237 227 236 232 242 221 223 235
339 342 347 342 335 330 335 338 333 332 337 328 323 316 310 304 281 271 265 264 259 268 261 239 239 242 241 232 241 251 237 228 240